Location: Unspecified
(0.0000°N, 0.0000°E)
Time: 14:23:47
(UTC+00:00)

Altair - Pass Details

Date: 02 November 2021
Orbit: 1502 x 1682 km, 47.2° (Epoch: 26 November)

Event Time Altitude Azimuth Distance (km) Brightness Sun altitude
Rises 07:23:13 0° 343° (NNW) 4,806 9.8 24.0°
Reaches altitude 10° 07:27:01 10° 355° (N) 3,850 9.5 24.9°
Maximum altitude 07:34:54 27° 49° (NE) 2,801 9.5 26.8°
Drops below altitude 10° 07:42:54 10° 102° (ESE) 3,935 11.3 28.7°
Sets 07:46:47 0° 113° (ESE) 4,931 11.3 29.7°
